This is the latest recevied weather packets stored in our database for station/object KC3ELT-10. If no packets are shown the sender has not sent any weather packets the latest 10 day(s).
| Time | Temp. | Humidity | Pressure | Rain* | Wind** | Luminosity | Snow |
|---|---|---|---|---|---|---|---|
| 1777546378 | 7.22° C | 93% | 1002 hPa | 0 mm | 0 m/s | - | - |
| 1777546078 | 7.22° C | 93% | 1002 hPa | 0 mm | 1.34 m/s, 293° | - | - |
| 1777545778 | 7.22° C | 92% | 1001.9 hPa | 0 mm | 0.45 m/s, 271° | - | - |
| 1777545479 | 7.22° C | 92% | 1001.9 hPa | 0 mm | 1.34 m/s, 251° | - | - |
| 1777545178 | 7.22° C | 92% | 1001.9 hPa | 0 mm | 0 m/s | - | - |
| 1777544878 | 7.22° C | 92% | 1001.9 hPa | 0 mm | 0 m/s | - | - |
| 1777544579 | 7.22° C | 92% | 1001.9 hPa | 0 mm | 0.89 m/s, 206° | - | - |
| 1777544278 | 7.22° C | 92% | 1001.9 hPa | 0 mm | 0 m/s | - | - |
| 1777543979 | 7.22° C | 92% | 1001.6 hPa | 0 mm | 0 m/s | - | - |
| 1777543678 | 7.22° C | 92% | 1001.6 hPa | 0 mm | 0.45 m/s, 198° | - | - |
| 1777543379 | 7.22° C | 92% | 1001.6 hPa | 0 mm | 0.45 m/s, 211° | - | - |
| 1777543078 | 7.22° C | 92% | 1001.6 hPa | 0 mm | 1.34 m/s, 193° | - | - |
| 1777542778 | 6.67° C | 92% | 1001.6 hPa | 0 mm | 0 m/s | - | - |
| 1777542478 | 7.22° C | 92% | 1001.6 hPa | 0 mm | 4.02 m/s, 183° | - | - |
| 1777542178 | 6.67° C | 92% | 1001.4 hPa | 0 mm | 0.89 m/s, 222° | - | - |
| 1777541879 | 6.67° C | 92% | 1001.4 hPa | 0 mm | 0.89 m/s, 201° | - | - |
| 1777541579 | 6.67° C | 92% | 1001.4 hPa | 0 mm | 0.45 m/s, 147° | - | - |
| 1777541278 | 6.67° C | 92% | 1001.1 hPa | 0 mm | 0.89 m/s, 175° | - | - |
| 1777540979 | 6.67° C | 92% | 1001.1 hPa | 0 mm | 0.89 m/s, 206° | - | - |
| 1777540679 | 6.67° C | 92% | 1001.1 hPa | 0 mm | 1.34 m/s, 165° | - | - |
| 1777540379 | 6.67° C | 92% | 1001 hPa | 0 mm | 1.34 m/s, 143° | - | - |
| 1777540079 | 6.67° C | 92% | 1001 hPa | 0 mm | 0.45 m/s, 146° | - | - |
| 1777539779 | 6.67° C | 92% | 1001 hPa | 0 mm | 0.45 m/s, 147° | - | - |
| 1777539479 | 6.67° C | 92% | 1001.1 hPa | 0 mm | 0 m/s | - | - |
| 1777539179 | 6.67° C | 92% | 1001.1 hPa | 0 mm | 0.45 m/s, 165° | - | - |
* Rain latest hour (hover to see other rain measurements)
** Current wind speed in m/s (hover to see current wind gust speed)